Weather in Gulistan

Uzbekistan     40°00′49″N   66°47′27″E
temp.,
°C
wind,
m/s
gust,
m/s
humid.,
%
clouds,
%
prec.,
mm/h
press.,
hPa
HPBL,
m
12 april, mon
mon1223:00+10ene47400 0.0 1018149
02:00+8ne46460 0.0 1019110
05:00+7ne58500 0.0 1020183
08:00+9ene57460 0.0 1020289
11:00+16ene22320 0.0 1019644
14:00+21wnw24180 0.0 10171168
17:00+21wnw3317100 0.0 10161321
20:00+13ne5114399 0.0 1018201
13 april, tue
tue1323:00+12ene3443100 0.0 101971
02:00+11ene2245100 0.0 101920
05:00+11ne3446100 0.0 101957
08:00+13ene334570 0.0 1020160
11:00+19wsw12406 0.0 10201042
14:00+22wsw56237 0.0 10182052
17:00+22w34220 0.0 10172315
20:00+15ne45478 0.0 101990
14 april, wed
wed1423:00+14ene33580 0.0 101937
02:00+12ne22620 0.0 101711
05:00+12ene22620 0.0 101711
08:00+15ene22513 0.0 1017155
11:00+21ssw12290 0.0 10151172
14:00+24wsw610230 0.0 10132103
17:00+23wsw68200 0.0 10121762
20:00+17wnw332791 0.0 101315
15 april, thu
thu1523:00+14se11320 0.0 101311
02:00+13ne113336 0.0 101211
05:00+13ene3330100 0.0 101215
08:00+15ene3537100 0.0 1012152
11:00+21n1126100 0.0 1011764
14:00+23wnw4317100 0.0 10111350
17:00+20w4525100 0.0 1011597
20:00+17ene2340100 0.0 101339
16 april, fri
fri1623:00+14se4654100 0.0 1015135
02:00+12w1155100 0.0 101411
05:00+10ssw11650 0.0 101510
08:00+14wsw11510 0.0 1017206
11:00+19w33310 0.0 10151160
14:00+22w33210 0.0 10141692
17:00+23w22215 0.0 10131665
20:00+17ene113451 0.0 101311